METOP-C

Last updated on Sun Dec 21 2025 00:02:26 GMT+0000 (Coordinated Universal Time)

1 43689U 18087A 25354.56445471 .00000094 00000+0 62956-4 0 9993 2 43689 98.6918 52.2138 0000869 25.8359 334.2861 14.21487156369452
UTC large
Height (km)
Speed (km/s)
/
Latitude / Longitude
Inclination (degrees)
Orbital Period (minutes)
Azimuth
Elevation
Range (km)
Doppler Factor

Next 0 passes for location: London (51.5072 / 0.1276)

Sorry there are no passes over London.